{"data":{"norad_id":39017,"intl_designator":"2012-067A","name":"ZHONGXING-12","alt_names":[],"object_type":"PAYLOAD","status":"ACTIVE","operator":null,"country":"PRC","launch_date":"2012-11-27","launch_site_code":"XICLF","launch_vehicle":null,"mission":null,"orbit_class":"UNKNOWN","rcs_meters":63.0957,"size_class":null,"mass_kg":null,"dimensions":null,"purposes":["comms"],"wikipedia_slug":null,"has_3d_model":false,"image_url":null,"decayed_at":null,"tle_current":{"epoch":"2026-09-20T01:56:29.709888Z","epoch_age_seconds":61876,"freshness":"FRESH","line1":"1 39017U 12067A   26263.08089942 -.00000211  00000+0  00000+0 0  9998","line2":"2 39017   0.0100 153.5559 0002770  13.2611 308.7954  1.00273807 50465","mean_motion":1.00273807,"eccentricity":0.000277,"inclination_deg":0.01,"raan_deg":153.5559,"arg_perigee_deg":13.2611,"mean_anomaly_deg":308.7954,"bstar":0,"rev_number":5046,"period_min":1436.0679454406,"perigee_km":35774.348656974,"apogee_km":35797.707604456,"semimajor_km":42164.165130715,"source":"CELESTRAK","updated_at":"2026-09-20T09:00:35.179000Z"}}}